カタログに戻る

FENGYUN 1C DEB

運用中PO
NORAD 30322·DEBRIS·🇨🇳 China

打ち上げ May 10, 1999 から Taiyuan Satellite Launch Center

Loading…

次のパス (今後24時間)

TLE

最新Source: Space-Track

元期: Sep 13, 2026, 23:38 UTC

1 30322U 99025AAK 26256.98495389  .00001325  00000-0  76186-3 0  9993
2 30322  98.3762  99.8281 0124404 189.3380 170.5477 14.07002027   667

AllMySatでFENGYUN 1C DEBをリアルタイム追跡

Download on the App Store